| time (UTC) | temp F | wind direction | speed MPH | gust MPH | rain 1hr in | rain 24hr in | rain mn in | humidity % | barometer mb |
| 20260508073224 | 68 | 83 | 4.0 | 8.0 | 0.00 | 0.00 | 0.00 | 88 | 1014.0 |
| 20260508072544 | 0 | 83 | 4.0 | 4.0 | 0.00 | 0.00 | 0.00 | ||
| 20260508071651 | 68 | 82 | 6.0 | 9.0 | 0.00 | 0.00 | 0.00 | 88 | 1014.0 |
| 20260508071011 | 68 | 82 | 5.0 | 9.0 | 0.00 | 0.00 | 0.00 | 88 | 1014.2 |
| 20260508070331 | 0 | 82 | 7.0 | 7.0 | 0.00 | 0.00 | 0.00 | ||
| 20260508065906 | 68 | 82 | 5.0 | 10.0 | 0.00 | 0.00 | 0.00 | 88 | 1014.2 |
| 20260508065230 | 68 | 82 | 5.0 | 10.0 | 0.00 | 0.00 | 0.00 | 88 | 1014.4 |
| 20260508064546 | 68 | 82 | 6.0 | 10.0 | 0.00 | 0.00 | 0.00 | 88 | 1014.3 |
| 20260508063906 | 0 | 82 | 8.0 | 8.0 | 0.00 | 0.00 | 0.00 | ||
| 20260508063013 | 68 | 82 | 6.0 | 12.0 | 0.00 | 0.00 | 0.00 | 88 | 1014.4 |
| 20260508062333 | 68 | 82 | 5.0 | 9.0 | 0.00 | 0.00 | 0.00 | 88 | 1014.5 |
| 20260508061653 | 68 | 82 | 6.0 | 9.0 | 0.00 | 0.00 | 0.00 | 88 | 1014.6 |
| 20260508061013 | 68 | 82 | 4.0 | 6.0 | 0.00 | 0.00 | 0.00 | 88 | 1014.6 |
| 20260508060333 | 68 | 81 | 2.0 | 9.0 | 0.00 | 0.00 | 0.00 | 88 | 1014.7 |
| 20260508055653 | 0 | 82 | 5.0 | 5.0 | 0.00 | 0.00 | 0.00 | ||
| 20260508054759 | 0 | 83 | 3.0 | 3.0 | 0.00 | 0.00 | 0.00 | ||
| 20260508053618 | 69 | 17 | 1.0 | 3.0 | 0.00 | 0.00 | 0.00 | 87 | 1014.5 |
| 20260508052938 | 69 | 46 | 1.0 | 4.0 | 0.00 | 0.00 | 0.00 | 87 | 1014.5 |
| 20260508052258 | 0 | 64 | 1.0 | 0.0 | 0.00 | 0.00 | 0.00 | ||
| 20260508051151 | 0 | 60 | 1.0 | 0.0 | 0.00 | 0.00 | 0.00 | ||
| 20260508050256 | 0 | 80 | 3.0 | 5.0 | 0.00 | 0.00 | 0.00 | ||
| 20260508045119 | 69 | 82 | 4.0 | 7.0 | 0.00 | 0.00 | 0.00 | 86 | 1014.9 |
| 20260508044439 | 69 | 80 | 3.0 | 9.0 | 0.00 | 0.00 | 0.00 | 86 | 1014.9 |
| 20260508043759 | 0 | 83 | 3.0 | 4.0 | 0.00 | 0.00 | 0.00 | ||
| 20260508042905 | 0 | 82 | 4.0 | 3.0 | 0.00 | 0.00 | 0.00 | ||
| 20260508042011 | 0 | 80 | 6.0 | 8.0 | 0.00 | 0.00 | 0.00 | ||
| 20260508041116 | 0 | 82 | 6.0 | 6.0 | 0.00 | 0.00 | 0.00 | ||
| 20260508035438 | 0 | 82 | 6.0 | 5.0 | 0.00 | 0.00 | 0.00 | ||
| 20260508034545 | 0 | 81 | 5.0 | 7.0 | 0.00 | 0.00 | 0.00 | ||
| 20260508033338 | 0 | 82 | 6.0 | 9.0 | 0.00 | 0.00 | 0.00 | ||
| 20260508032444 | 70 | 82 | 6.0 | 11.0 | 0.00 | 0.00 | 0.00 | 85 | 1015.5 |
| 20260508031804 | 70 | 81 | 8.0 | 11.0 | 0.00 | 0.00 | 0.00 | 84 | 1015.6 |
| 20260508031125 | 0 | 81 | 9.0 | 6.0 | 0.00 | 0.00 | 0.00 | ||
| 20260508030230 | 0 | 82 | 6.0 | 5.0 | 0.00 | 0.00 | 0.00 | ||
| 20260508025336 | 71 | 82 | 8.0 | 14.0 | 0.00 | 0.00 | 0.00 | 84 | 1015.3 |
| 20260508024656 | 71 | 81 | 10.0 | 14.0 | 0.00 | 0.00 | 0.00 | 84 | 1015.1 |
| 20260508024016 | 0 | 82 | 11.0 | 9.0 | 0.00 | 0.00 | 0.00 | ||
| 20260508023122 | 0 | 81 | 7.0 | 12.0 | 0.00 | 0.00 | 0.00 | ||
| 20260508022227 | 0 | 82 | 8.0 | 7.0 | 0.00 | 0.00 | 0.00 | ||
| 20260508021332 | 0 | 82 | 5.0 | 6.0 | 0.00 | 0.00 | 0.00 | ||
| 20260508020437 | 0 | 81 | 8.0 | 6.0 | 0.00 | 0.00 | 0.00 | ||
| 20260508015542 | 73 | 82 | 8.0 | 17.0 | 0.00 | 0.00 | 0.00 | 83 | 1014.6 |
| 20260508014902 | 73 | 82 | 11.0 | 16.0 | 0.00 | 0.00 | 0.00 | 83 | 1014.4 |
| 20260508014222 | 0 | 82 | 7.0 | 6.0 | 0.00 | 0.00 | 0.00 | ||
| 20260508013326 | 74 | 82 | 8.0 | 13.0 | 0.00 | 0.00 | 0.00 | 82 | 1014.5 |
| 20260508012646 | 74 | 82 | 7.0 | 11.0 | 0.00 | 0.00 | 0.00 | 82 | 1014.6 |
| 20260508012006 | 74 | 82 | 7.0 | 11.0 | 0.00 | 0.00 | 0.00 | 81 | 1014.6 |
| 20260508011326 | 0 | 82 | 6.0 | 9.0 | 0.00 | 0.00 | 0.00 | ||
| 20260508010432 | 0 | 82 | 4.0 | 4.0 | 0.00 | 0.00 | 0.00 | ||
| 20260508005437 | 75 | 83 | 4.0 | 7.0 | 0.00 | 0.00 | 0.00 | 80 | 1014.3 |
| 20260508004757 | 75 | 82 | 4.0 | 7.0 | 0.00 | 0.00 | 0.00 | 80 | 1014.2 |
| 20260508004117 | 75 | 82 | 4.0 | 11.0 | 0.00 | 0.00 | 0.00 | 80 | 1014.0 |
| 20260508003437 | 75 | 82 | 5.0 | 11.0 | 0.00 | 0.00 | 0.00 | 80 | 1013.7 |
| 20260508002757 | 75 | 82 | 7.0 | 10.0 | 0.00 | 0.00 | 0.00 | 79 | 1013.6 |
| 20260508002117 | 75 | 82 | 7.0 | 10.0 | 0.00 | 0.00 | 0.00 | 79 | 1013.8 |
| 20260508001437 | 0 | 81 | 10.0 | 6.0 | 0.00 | 0.00 | 0.00 | ||
| 20260508000541 | 75 | 82 | 10.0 | 15.0 | 0.00 | 0.00 | 0.00 | 79 | 1013.6 |
| 20260507235901 | 0 | 82 | 7.0 | 9.0 | 0.00 | 0.00 | 0.00 | ||
| 20260507234408 | 76 | 82 | 7.0 | 13.0 | 0.00 | 0.00 | 0.00 | 79 | 1013.6 |
| 20260507233728 | 0 | 82 | 10.0 | 6.0 | 0.00 | 0.00 | 0.00 | ||
| 20260507232400 | 0 | 82 | 10.0 | 11.0 | 0.00 | 0.00 | 0.00 | ||
| 20260507231251 | 0 | 82 | 9.0 | 9.0 | 0.00 | 0.00 | 0.00 | ||
| 20260507230358 | 76 | 82 | 9.0 | 14.0 | 0.00 | 0.00 | 0.00 | 78 | 1013.8 |
| 20260507225718 | 0 | 82 | 9.0 | 10.0 | 0.00 | 0.00 | 0.00 | ||
| 20260507223647 | 0 | 82 | 10.0 | 12.0 | 0.00 | 0.00 | 0.00 | ||
| 20260507222752 | 0 | 82 | 8.0 | 11.0 | 0.00 | 0.00 | 0.00 | ||
| 20260507221859 | 0 | 82 | 12.0 | 11.0 | 0.00 | 0.00 | 0.00 | ||
| 20260507220719 | 77 | 82 | 10.0 | 15.0 | 0.00 | 0.00 | 0.00 | 76 | 1013.8 |
| 20260507220039 | 0 | 82 | 8.0 | 9.0 | 0.00 | 0.00 | 0.00 | ||
| 20260507215142 | 78 | 81 | 9.0 | 15.0 | 0.00 | 0.00 | 0.00 | 77 | 1013.4 |
| 20260507214502 | 0 | 82 | 7.0 | 8.0 | 0.00 | 0.00 | 0.00 | ||
| 20260507213606 | 79 | 81 | 8.0 | 15.0 | 0.00 | 0.00 | 0.00 | 75 | 1013.5 |
| 20260507212926 | 78 | 82 | 9.0 | 16.0 | 0.00 | 0.00 | 0.00 | 74 | 1013.4 |
| 20260507212246 | 79 | 82 | 6.0 | 16.0 | 0.00 | 0.00 | 0.00 | 75 | 1013.4 |
| 20260507211606 | 0 | 81 | 9.0 | 14.0 | 0.00 | 0.00 | 0.00 | ||
| 20260507210712 | 0 | 81 | 7.0 | 6.0 | 0.00 | 0.00 | 0.00 | ||
| 20260507204428 | 78 | 82 | 6.0 | 16.0 | 0.00 | 0.00 | 0.00 | 74 | 1013.5 |
| 20260507203748 | 78 | 81 | 4.0 | 10.0 | 0.00 | 0.00 | 0.00 | 73 | 1013.6 |
| 20260507203108 | 0 | 71 | 3.0 | 4.0 | 0.00 | 0.00 | 0.00 | ||
| 20260507201253 | 0 | 82 | 6.0 | 7.0 | 0.00 | 0.00 | 0.00 | ||
| 20260507200141 | 77 | 82 | 5.0 | 11.0 | 0.00 | 0.00 | 0.00 | 76 | 1013.8 |
| 20260507195501 | 76 | 57 | 1.0 | 10.0 | 0.00 | 0.00 | 0.00 | 77 | 1013.9 |
| 20260507194821 | 76 | 82 | 6.0 | 11.0 | 0.00 | 0.00 | 0.00 | 78 | 1014.1 |
| 20260507194141 | 0 | 82 | 6.0 | 4.0 | 0.00 | 0.00 | 0.00 | ||
| 20260507192930 | 0 | 81 | 6.0 | 4.0 | 0.00 | 0.00 | 0.00 | ||
| 20260507192004 | 75 | 81 | 6.0 | 9.0 | 0.00 | 0.00 | 0.00 | 78 | 1014.4 |
| 20260507191324 | 75 | 79 | 3.0 | 11.0 | 0.00 | 0.00 | 0.00 | 80 | 1014.3 |
| 20260507190644 | 0 | 80 | 4.0 | 6.0 | 0.00 | 0.00 | 0.00 | ||
| 20260507185750 | 0 | 70 | 3.0 | 0.0 | 0.00 | 0.00 | 0.00 | ||
| 20260507184857 | 74 | 81 | 6.0 | 11.0 | 0.00 | 0.00 | 0.00 | 81 | 1014.6 |
| 20260507184217 | 0 | 75 | 3.0 | 4.0 | 0.00 | 0.00 | 0.00 | ||
| 20260507183324 | 0 | 81 | 5.0 | 4.0 | 0.00 | 0.00 | 0.00 | ||
| 20260507181859 | 73 | 81 | 7.0 | 10.0 | 0.00 | 0.00 | 0.00 | 80 | 1014.7 |
| 20260507181219 | 73 | 81 | 5.0 | 9.0 | 0.00 | 0.00 | 0.00 | 81 | 1014.8 |
| 20260507180539 | 72 | 80 | 4.0 | 13.0 | 0.00 | 0.00 | 0.00 | 82 | 1014.6 |
| 20260507175859 | 72 | 81 | 7.0 | 13.0 | 0.00 | 0.00 | 0.00 | 80 | 1014.8 |
| 20260507175219 | 72 | 62 | 2.0 | 11.0 | 0.00 | 0.00 | 0.00 | 82 | 1014.9 |
| 20260507174539 | 72 | 82 | 5.0 | 9.0 | 0.00 | 0.00 | 0.00 | 83 | 1015.0 |
| 20260507173859 | 0 | 81 | 5.0 | 4.0 | 0.00 | 0.00 | 0.00 | ||
| 20260507172439 | 71 | 81 | 5.0 | 10.0 | 0.00 | 0.00 | 0.00 | 85 | 1015.0 |
| 20260507171759 | 71 | 82 | 5.0 | 10.0 | 0.00 | 0.00 | 0.00 | 86 | 1015.0 |
| 20260507171119 | 0 | 81 | 6.0 | 5.0 | 0.00 | 0.00 | 0.00 | ||
| 20260507170224 | 0 | 82 | 7.0 | 3.0 | 0.00 | 0.00 | 0.00 | ||
| 20260507165329 | 0 | 81 | 6.0 | 6.0 | 0.00 | 0.00 | 0.00 | ||
| 20260507164219 | 67 | 81 | 8.0 | 12.0 | 0.00 | 0.00 | 0.00 | 93 | 1015.1 |
| 20260507163539 | 67 | 81 | 6.0 | 11.0 | 0.00 | 0.00 | 0.00 | 93 | 1015.3 |
| 20260507162859 | 0 | 81 | 10.0 | 8.0 | 0.00 | 0.00 | 0.00 | ||
| 20260507161933 | 0 | 81 | 7.0 | 8.0 | 0.00 | 0.00 | 0.00 | ||
| 20260507160255 | 0 | 81 | 8.0 | 9.0 | 0.00 | 0.00 | 0.00 | ||
| 20260507155400 | 0 | 81 | 7.0 | 6.0 | 0.00 | 0.00 | 0.00 | ||
| 20260507154006 | 67 | 81 | 6.0 | 10.0 | 0.00 | 0.00 | 0.00 | 96 | 1015.3 |
| 20260507153325 | 0 | 82 | 4.0 | 3.0 | 0.00 | 0.00 | 0.00 | ||
| 20260507152430 | 0 | 81 | 6.0 | 3.0 | 0.00 | 0.00 | 0.00 | ||
| 20260507151535 | 67 | 81 | 6.0 | 11.0 | 0.00 | 0.00 | 0.00 | 96 | 1015.3 |
| 20260507150855 | 0 | 81 | 8.0 | 7.0 | 0.00 | 0.00 | 0.00 | ||
| 20260507150000 | 0 | 81 | 6.0 | 5.0 | 0.00 | 0.00 | 0.00 | ||
| 20260507145105 | 0 | 81 | 5.0 | 9.0 | 0.00 | 0.00 | 0.00 | ||
| 20260507144210 | 0 | 81 | 8.0 | 7.0 | 0.00 | 0.00 | 0.00 | ||
| 20260507143246 | 0 | 81 | 9.0 | 4.0 | 0.00 | 0.00 | 0.00 | ||
| 20260507142106 | 0 | 80 | 7.0 | 7.0 | 0.00 | 0.00 | 0.00 | ||
| 20260507135951 | 68 | 82 | 6.0 | 11.0 | 0.00 | 0.00 | 0.00 | 96 | 1015.0 |
| 20260507135311 | 68 | 82 | 4.0 | 8.0 | 0.00 | 0.00 | 0.00 | 96 | 1014.9 |
| 20260507134631 | 68 | 81 | 4.0 | 9.0 | 0.00 | 0.00 | 0.00 | 96 | 1014.8 |
| 20260507133951 | 69 | 82 | 5.0 | 9.0 | 0.00 | 0.00 | 0.00 | 96 | 1015.0 |
| 20260507133311 | 69 | 82 | 6.0 | 10.0 | 0.00 | 0.00 | 0.00 | 96 | 1014.8 |
| 20260507132631 | 0 | 81 | 7.0 | 8.0 | 0.00 | 0.00 | 0.00 | ||
| 20260507131521 | 0 | 81 | 9.0 | 7.0 | 0.00 | 0.00 | 0.00 | ||
| 20260507125620 | 0 | 81 | 8.0 | 8.0 | 0.00 | 0.00 | 0.00 | ||
| 20260507124727 | 0 | 81 | 8.0 | 9.0 | 0.00 | 0.00 | 0.00 | ||
| 20260507123832 | 70 | 81 | 5.0 | 11.0 | 0.00 | 0.00 | 0.00 | 97 | 1014.4 |
| 20260507123152 | 70 | 65 | 2.0 | 4.0 | 0.00 | 0.00 | 0.00 | 97 | 1014.1 |
| 20260507122512 | 0 | 55 | 1.0 | 2.0 | 0.00 | 0.00 | 0.00 | ||
| 20260507121149 | 0 | 53 | 1.0 | 1.0 | 0.00 | 0.00 | 0.00 | ||
| 20260507120225 | 0 | 71 | 2.0 | 2.0 | 0.00 | 0.00 | 0.00 | ||
| 20260507115119 | 0 | 44 | 2.0 | 4.0 | 0.00 | 0.00 | 0.00 | ||
| 20260507114225 | 0 | 25 | 1.0 | 1.0 | 0.00 | 0.00 | 0.00 | ||
| 20260507113116 | 73 | 74 | 3.0 | 7.0 | 0.00 | 0.00 | 0.00 | 95 | 1013.1 |
| 20260507112436 | 0 | 75 | 2.0 | 4.0 | 0.00 | 0.00 | 0.00 | ||
| 20260507111541 | 0 | 72 | 2.0 | 1.0 | 0.00 | 0.00 | 0.00 | ||
| 20260507105959 | 77 | 259 | 4.0 | 6.0 | 0.00 | 0.00 | 0.00 | 93 | 1012.4 |
| 20260507105319 | 77 | 259 | 4.0 | 8.0 | 0.00 | 0.00 | 0.00 | 93 | 1012.3 |
| 20260507104639 | 77 | 259 | 5.0 | 8.0 | 0.00 | 0.00 | 0.00 | 93 | 1012.1 |
| 20260507103959 | 0 | 259 | 4.0 | 2.0 | 0.00 | 0.00 | 0.00 | ||
| 20260507102847 | 0 | 259 | 4.0 | 2.0 | 0.00 | 0.00 | 0.00 | ||
| 20260507101736 | 0 | 259 | 7.0 | 9.0 | 0.00 | 0.00 | 0.00 | ||
| 20260507100843 | 77 | 258 | 4.0 | 9.0 | 0.00 | 0.00 | 0.00 | 92 | 1011.9 |
| 20260507100203 | 0 | 259 | 5.0 | 8.0 | 0.00 | 0.00 | 0.00 | ||
| 20260507095310 | 77 | 260 | 7.0 | 12.0 | 0.00 | 0.00 | 0.00 | 92 | 1011.7 |
| 20260507094630 | 77 | 259 | 6.0 | 10.0 | 0.00 | 0.00 | 0.00 | 91 | 1011.7 |
| 20260507093950 | 0 | 260 | 5.0 | 6.0 | 0.00 | 0.00 | 0.00 | ||
| 20260507092845 | 78 | 260 | 4.0 | 8.0 | 0.00 | 0.00 | 0.00 | 91 | 1011.7 |
| 20260507092202 | 0 | 256 | 4.0 | 4.0 | 0.00 | 0.00 | 0.00 | ||
| 20260507090640 | 78 | 259 | 6.0 | 10.0 | 0.00 | 0.00 | 0.00 | 91 | 1011.5 |
| 20260507090000 | 78 | 260 | 6.0 | 9.0 | 0.00 | 0.00 | 0.00 | 91 | 1011.5 |
| 20260507085320 | 0 | 260 | 5.0 | 5.0 | 0.00 | 0.00 | 0.00 | ||
| 20260507084427 | 78 | 260 | 4.0 | 10.0 | 0.00 | 0.00 | 0.00 | 91 | 1011.5 |
| 20260507083747 | 78 | 260 | 6.0 | 15.0 | 0.00 | 0.00 | 0.00 | 91 | 1011.5 |
| 20260507083107 | 0 | 260 | 6.0 | 8.0 | 0.00 | 0.00 | 0.00 | ||
| 20260507081200 | 0 | 260 | 5.0 | 5.0 | 0.00 | 0.00 | 0.00 | ||
| 20260507080234 | 78 | 259 | 5.0 | 9.0 | 0.00 | 0.00 | 0.00 | 91 | 1011.7 |
| 20260507075554 | 0 | 259 | 5.0 | 6.0 | 0.00 | 0.00 | 0.00 | ||
| 20260507074442 | 0 | 260 | 8.0 | 6.0 | 0.00 | 0.00 | 0.00 |